Location: Bli��� Lhota
(48.7570°N, 14.0120°E)
Time: 05:22:17
(UTC+00:00)

ARGOS - Pass Details

Date: 18 September 2020
Orbit: 821 x 834 km, 98.4° (Epoch: 29 October)

Event Time Altitude Azimuth Distance (km) Brightness Sun altitude
Rises 17:33:56 0° 143° (SE) 3,344 5.9 -4.8°
Reaches altitude 10° 17:36:21 10° 137° (SE) 2,416 5.1 -5.2°
Maximum altitude 17:41:24 44° 67° (ENE) 1,128 3.5 -6.0°
Drops below altitude 10° 17:46:29 10° 357° (N) 2,438 5.8 -6.9°
Sets 17:48:56 0° 351° (N) 3,377 6.6 -7.3°
